TimeMST,TemperatureF,Dew PointF,Humidity,Sea Level PressureIn,VisibilityMPH,Wind Direction,Wind SpeedMPH,Gust SpeedMPH,PrecipitationIn,Events,Conditions,WindDirDegrees,DateUTC
12:53 AM,32.0,19.9,61,30.16,10.0,SW,13.8,-,N/A,,Overcast,220,2013-11-06 07:53:00
1:53 AM,32.0,19.9,61,30.15,10.0,SW,12.7,-,N/A,,Overcast,230,2013-11-06 08:53:00
2:53 AM,32.0,19.9,61,30.15,10.0,SW,12.7,-,N/A,,Overcast,230,2013-11-06 09:53:00
3:53 AM,33.1,21.0,61,30.15,10.0,SSW,13.8,-,N/A,,Mostly Cloudy,210,2013-11-06 10:53:00
4:53 AM,30.9,21.0,67,30.18,10.0,SSW,13.8,-,N/A,,Clear,200,2013-11-06 11:53:00
5:53 AM,30.9,21.9,69,30.21,10.0,SSW,16.1,-,N/A,,Clear,210,2013-11-06 12:53:00
6:53 AM,30.0,21.9,72,30.25,10.0,SSW,15.0,-,N/A,,Clear,210,2013-11-06 13:53:00
7:53 AM,30.0,23.0,75,30.26,10.0,SSW,12.7,-,N/A,,Overcast,210,2013-11-06 14:53:00
8:53 AM,35.1,24.1,64,30.27,10.0,SSW,12.7,-,N/A,,Mostly Cloudy,210,2013-11-06 15:53:00
9:53 AM,39.9,23.0,51,30.25,10.0,SW,16.1,-,N/A,,Overcast,230,2013-11-06 16:53:00
10:53 AM,41.0,19.9,43,30.25,10.0,SW,19.6,23.0,N/A,,Overcast,230,2013-11-06 17:53:00
11:53 AM,44.1,19.0,37,30.25,10.0,WSW,17.3,27.6,N/A,,Scattered Clouds,250,2013-11-06 18:53:00
12:53 PM,45.0,18.0,34,30.25,10.0,West,18.4,29.9,N/A,,Partly Cloudy,280,2013-11-06 19:53:00
1:53 PM,45.0,17.1,33,30.24,10.0,West,23.0,32.2,N/A,,Partly Cloudy,260,2013-11-06 20:53:00
2:53 PM,42.1,18.0,38,30.26,10.0,WSW,16.1,26.5,N/A,,Partly Cloudy,250,2013-11-06 21:53:00
3:53 PM,42.1,19.9,41,30.26,10.0,West,16.1,21.9,N/A,,Mostly Cloudy,260,2013-11-06 22:53:00
4:53 PM,41.0,21.0,45,30.28,10.0,West,15.0,-,N/A,,Mostly Cloudy,260,2013-11-06 23:53:00
5:53 PM,41.0,21.9,47,30.30,10.0,West,12.7,-,N/A,,Overcast,260,2013-11-07 00:53:00
6:53 PM,39.0,21.9,50,30.31,10.0,South,4.6,-,N/A,,Overcast,170,2013-11-07 01:53:00
7:53 PM,39.0,23.0,53,30.31,10.0,South,6.9,-,N/A,,Overcast,190,2013-11-07 02:53:00
8:53 PM,37.0,24.1,59,30.31,10.0,SW,10.4,-,N/A,,Overcast,220,2013-11-07 03:53:00
9:53 PM,37.0,23.0,57,30.30,10.0,South,10.4,-,N/A,,Mostly Cloudy,180,2013-11-07 04:53:00
10:53 PM,37.9,23.0,55,30.29,10.0,SSE,5.8,-,N/A,,Overcast,160,2013-11-07 05:53:00
11:53 PM,37.0,24.1,59,30.28,10.0,SSW,6.9,-,N/A,,Overcast,200,2013-11-07 06:53:00